カタログに戻る

ONEWEB-0145

運用中通信PO
NORAD 47291·PAYLOAD·🇬🇧 United Kingdom

打ち上げ Dec 18, 2020 から Vostochny Cosmodrome

Loading…

次のパス (今後24時間)

TLE

最新Source: CelesTrak SupGP

元期: Sep 14, 2026, 16:59 UTC

1 47291C 20100AK  26257.70817546  .00000796  00000+0  22163-2 0  2570
2 47291  87.8973 332.8944 0001717  99.2126 359.9042 13.12438080    18

AllMySatでONEWEB-0145をリアルタイム追跡

Download on the App Store